timestamp,wind_dir_avg,wind_spd_max_dir,wind_spd_avg,wind_spd_gust,battery_voltage,lat,long
2018-12-28 00:00:00+00:00,0.0,3.0,10.76,12.4,,47.59359,-54.27349
2018-12-28 00:10:00+00:00,357.0,358.0,10.93,14.95,,47.59359,-54.27349
2018-12-28 00:20:00+00:00,351.0,349.0,10.96,12.47,,47.59359,-54.27349
2018-12-28 00:30:00+00:00,355.0,348.0,11.2,12.72,,47.59359,-54.27349
2018-12-28 00:40:00+00:00,350.0,345.0,10.48,12.47,,47.59359,-54.27349
2018-12-28 00:50:00+00:00,359.0,8.0,10.77,11.84,,47.59359,-54.27349
2018-12-28 01:00:00+00:00,350.0,348.0,10.29,12.27,,47.59359,-54.27349
2018-12-28 01:10:00+00:00,0.0,351.0,9.82,11.63,,47.59359,-54.27349
2018-12-28 01:20:00+00:00,359.0,1.0,9.53,11.54,,47.59359,-54.27349
2018-12-28 01:30:00+00:00,359.0,10.0,7.16,10.81,,47.59359,-54.27349
2018-12-28 01:40:00+00:00,7.0,15.0,9.39,11.1,,47.59359,-54.27349
2018-12-28 01:50:00+00:00,1.0,4.0,8.71,10.84,,47.59359,-54.27349
2018-12-28 02:00:00+00:00,5.0,9.0,8.19,10.5,,47.59359,-54.27349
2018-12-28 02:10:00+00:00,11.0,18.0,9.6,11.31,,47.59359,-54.27349
2018-12-28 02:20:00+00:00,15.0,18.0,9.4,10.82,,47.59359,-54.27349
2018-12-28 02:30:00+00:00,4.0,4.0,7.37,9.42,,47.59359,-54.27349
2018-12-28 02:40:00+00:00,12.0,18.0,8.11,10.58,,47.59359,-54.27349
2018-12-28 02:50:00+00:00,14.0,6.0,7.65,10.79,,47.59359,-54.27349
2018-12-28 03:00:00+00:00,359.0,340.0,7.04,9.16,,47.59359,-54.27349
2018-12-28 03:10:00+00:00,353.0,350.0,6.93,10.08,,47.59359,-54.27349
2018-12-28 03:20:00+00:00,357.0,353.0,7.99,9.38,,47.59359,-54.27349
2018-12-28 03:30:00+00:00,5.0,6.0,7.01,10.16,,47.59359,-54.27349
2018-12-28 03:40:00+00:00,1.0,2.0,7.77,9.71,,47.59359,-54.27349
2018-12-28 03:50:00+00:00,345.0,344.0,7.66,9.02,,47.59359,-54.27349
2018-12-28 04:00:00+00:00,350.0,342.0,6.89,8.82,,47.59359,-54.27349
2018-12-28 04:10:00+00:00,351.0,349.0,6.52,9.67,,47.59359,-54.27349
2018-12-28 04:20:00+00:00,352.0,356.0,5.95,7.22,,47.59359,-54.27349
2018-12-28 04:30:00+00:00,348.0,4.0,5.2,7.04,,47.59359,-54.27349
2018-12-28 04:40:00+00:00,356.0,348.0,5.53,7.58,,47.59359,-54.27349
2018-12-28 04:50:00+00:00,357.0,342.0,7.12,9.03,,47.59359,-54.27349
2018-12-28 05:00:00+00:00,350.0,358.0,5.98,7.99,,47.59359,-54.27349
2018-12-28 05:10:00+00:00,346.0,348.0,4.51,6.48,,47.59359,-54.27349
2018-12-28 05:20:00+00:00,7.0,357.0,4.29,5.79,,47.59359,-54.27349
2018-12-28 05:30:00+00:00,343.0,346.0,4.69,7.26,,47.59359,-54.27349
2018-12-28 05:40:00+00:00,10.0,7.0,5.19,7.65,,47.59359,-54.27349
2018-12-28 05:50:00+00:00,356.0,359.0,4.82,6.35,,47.59359,-54.27349
2018-12-28 06:00:00+00:00,347.0,352.0,4.84,6.29,,47.59359,-54.27349
2018-12-28 06:10:00+00:00,3.0,13.0,4.69,6.37,,47.59359,-54.27349
2018-12-28 06:20:00+00:00,346.0,342.0,4.09,5.83,,47.59359,-54.27349
2018-12-28 06:30:00+00:00,340.0,347.0,4.76,8.28,,47.59359,-54.27349
2018-12-28 06:40:00+00:00,340.0,349.0,3.85,5.67,,47.59359,-54.27349
2018-12-28 06:50:00+00:00,345.0,349.0,4.17,5.87,,47.59359,-54.27349
2018-12-28 07:00:00+00:00,346.0,344.0,4.01,6.26,,47.59359,-54.27349
2018-12-28 07:10:00+00:00,344.0,346.0,4.2,5.9,,47.59359,-54.27349
2018-12-28 07:20:00+00:00,359.0,1.0,5.21,8.21,,47.59359,-54.27349
2018-12-28 07:30:00+00:00,344.0,9.0,3.83,5.6,,47.59359,-54.27349
2018-12-28 07:40:00+00:00,347.0,323.0,4.37,6.01,,47.59359,-54.27349
2018-12-28 07:50:00+00:00,347.0,342.0,4.12,5.8,,47.59359,-54.27349
2018-12-28 08:00:00+00:00,330.0,330.0,4.6,7.17,,47.59359,-54.27349
2018-12-28 08:10:00+00:00,334.0,344.0,3.61,5.65,,47.59359,-54.27349
2018-12-28 08:20:00+00:00,336.0,336.0,5.04,7.15,,47.59359,-54.27349
2018-12-28 08:30:00+00:00,322.0,324.0,6.1,8.51,,47.59359,-54.27349
2018-12-28 08:40:00+00:00,332.0,326.0,5.01,7.25,,47.59359,-54.27349
2018-12-28 08:50:00+00:00,329.0,326.0,4.57,6.98,,47.59359,-54.27349
2018-12-28 09:00:00+00:00,330.0,327.0,5.3,6.85,,47.59359,-54.27349
2018-12-28 09:10:00+00:00,320.0,335.0,5.65,7.47,,47.59359,-54.27349
2018-12-28 09:20:00+00:00,321.0,327.0,6.15,8.13,,47.59359,-54.27349
2018-12-28 09:30:00+00:00,324.0,311.0,5.46,8.09,,47.59359,-54.27349
2018-12-28 09:40:00+00:00,325.0,318.0,6.61,8.54,,47.59359,-54.27349
2018-12-28 09:50:00+00:00,319.0,319.0,6.25,8.64,,47.59359,-54.27349
2018-12-28 10:00:00+00:00,319.0,317.0,7.28,9.7,,47.59359,-54.27349
2018-12-28 10:10:00+00:00,328.0,330.0,5.69,8.07,,47.59359,-54.27349
2018-12-28 10:20:00+00:00,332.0,331.0,5.81,8.83,,47.59359,-54.27349
2018-12-28 10:30:00+00:00,324.0,326.0,6.82,8.71,,47.59359,-54.27349
2018-12-28 10:40:00+00:00,325.0,325.0,6.65,8.38,,47.59359,-54.27349
2018-12-28 10:50:00+00:00,325.0,322.0,7.13,8.61,,47.59359,-54.27349
2018-12-28 11:00:00+00:00,332.0,327.0,6.38,10.26,,47.59359,-54.27349
2018-12-28 11:10:00+00:00,327.0,328.0,6.11,8.06,,47.59359,-54.27349
2018-12-28 11:20:00+00:00,329.0,325.0,6.64,9.21,,47.59359,-54.27349
2018-12-28 11:30:00+00:00,324.0,325.0,6.39,8.44,,47.59359,-54.27349
2018-12-28 11:40:00+00:00,335.0,328.0,5.69,9.13,,47.59359,-54.27349
2018-12-28 11:50:00+00:00,344.0,344.0,4.56,7.3,,47.59359,-54.27349
2018-12-28 12:00:00+00:00,334.0,327.0,5.53,8.29,,47.59359,-54.27349
2018-12-28 12:10:00+00:00,341.0,339.0,6.61,9.07,,47.59359,-54.27349
2018-12-28 12:20:00+00:00,337.0,343.0,8.32,10.71,,47.59359,-54.27349
2018-12-28 12:30:00+00:00,341.0,346.0,6.3,8.6,,47.59359,-54.27349
2018-12-28 12:40:00+00:00,338.0,332.0,6.92,9.6,,47.59359,-54.27349
2018-12-28 12:50:00+00:00,348.0,356.0,7.1,8.54,,47.59359,-54.27349
2018-12-28 13:00:00+00:00,339.0,342.0,7.26,8.89,,47.59359,-54.27349
2018-12-28 13:10:00+00:00,344.0,355.0,7.17,8.43,,47.59359,-54.27349
2018-12-28 13:20:00+00:00,340.0,341.0,9.22,10.72,,47.59359,-54.27349
2018-12-28 13:30:00+00:00,344.0,342.0,9.49,11.96,,47.59359,-54.27349
2018-12-28 13:40:00+00:00,332.0,330.0,10.77,12.58,,47.59359,-54.27349
2018-12-28 13:50:00+00:00,343.0,347.0,9.03,11.23,,47.59359,-54.27349
2018-12-28 14:00:00+00:00,348.0,344.0,10.82,12.7,,47.59359,-54.27349
2018-12-28 14:10:00+00:00,339.0,343.0,10.61,12.07,,47.59359,-54.27349
2018-12-28 14:20:00+00:00,349.0,352.0,10.49,12.88,,47.59359,-54.27349
2018-12-28 14:30:00+00:00,350.0,355.0,11.28,12.58,,47.59359,-54.27349
2018-12-28 14:40:00+00:00,342.0,343.0,9.98,11.38,,47.59359,-54.27349
2018-12-28 14:50:00+00:00,351.0,352.0,7.68,8.63,,47.59359,-54.27349
2018-12-28 15:00:00+00:00,340.0,339.0,10.03,11.18,,47.59359,-54.27349
2018-12-28 15:10:00+00:00,339.0,346.0,7.66,10.75,,47.59359,-54.27349
2018-12-28 15:20:00+00:00,331.0,335.0,6.47,8.24,,47.59359,-54.27349
2018-12-28 15:30:00+00:00,337.0,340.0,7.69,9.81,,47.59359,-54.27349
2018-12-28 15:40:00+00:00,332.0,333.0,8.03,10.53,,47.59359,-54.27349
2018-12-28 15:50:00+00:00,321.0,333.0,7.24,10.36,,47.59359,-54.27349
2018-12-28 16:00:00+00:00,323.0,326.0,7.06,8.58,,47.59359,-54.27349
2018-12-28 16:10:00+00:00,332.0,336.0,7.54,8.62,,47.59359,-54.27349
2018-12-28 16:20:00+00:00,346.0,342.0,6.37,7.59,,47.59359,-54.27349
2018-12-28 16:30:00+00:00,333.0,340.0,6.56,8.57,,47.59359,-54.27349
2018-12-28 16:40:00+00:00,330.0,324.0,6.79,8.1,,47.59359,-54.27349
2018-12-28 16:50:00+00:00,329.0,339.0,6.31,9.28,,47.59359,-54.27349
2018-12-28 17:00:00+00:00,332.0,324.0,8.23,9.29,,47.59359,-54.27349
2018-12-28 17:10:00+00:00,327.0,327.0,7.56,9.6,,47.59359,-54.27349
2018-12-28 17:20:00+00:00,342.0,343.0,5.83,6.59,,47.59359,-54.27349
2018-12-28 17:30:00+00:00,342.0,340.0,6.14,7.59,,47.59359,-54.27349
2018-12-28 17:40:00+00:00,327.0,333.0,5.84,6.85,,47.59359,-54.27349
2018-12-28 17:50:00+00:00,342.0,342.0,5.63,6.53,,47.59359,-54.27349
2018-12-28 18:00:00+00:00,321.0,322.0,4.36,5.24,,47.59359,-54.27349
2018-12-28 18:10:00+00:00,322.0,316.0,4.93,6.27,,47.59359,-54.27349
2018-12-28 18:20:00+00:00,334.0,344.0,5.61,7.17,,47.59359,-54.27349
2018-12-28 18:30:00+00:00,330.0,321.0,5.7,7.78,,47.59359,-54.27349
2018-12-28 18:40:00+00:00,321.0,328.0,6.8,8.21,,47.59359,-54.27349
2018-12-28 18:50:00+00:00,332.0,330.0,5.08,5.89,,47.59359,-54.27349
2018-12-28 19:00:00+00:00,332.0,328.0,6.21,6.95,,47.59359,-54.27349
2018-12-28 19:10:00+00:00,321.0,321.0,6.05,7.39,,47.59359,-54.27349
2018-12-28 19:20:00+00:00,330.0,342.0,6.2,7.29,,47.59359,-54.27349
2018-12-28 19:30:00+00:00,313.0,310.0,5.37,6.57,,47.59359,-54.27349
2018-12-28 19:40:00+00:00,324.0,321.0,6.07,6.93,,47.59359,-54.27349
2018-12-28 19:50:00+00:00,330.0,330.0,6.08,7.36,,47.59359,-54.27349
2018-12-28 20:00:00+00:00,323.0,330.0,5.55,6.56,,47.59359,-54.27349
2018-12-28 20:10:00+00:00,319.0,323.0,5.47,6.16,,47.59359,-54.27349
2018-12-28 20:20:00+00:00,316.0,320.0,5.31,6.25,,47.59359,-54.27349
2018-12-28 20:30:00+00:00,319.0,324.0,5.4,7.14,,47.59359,-54.27349
2018-12-28 20:40:00+00:00,316.0,309.0,4.57,5.94,,47.59359,-54.27349
2018-12-28 20:50:00+00:00,314.0,321.0,4.77,6.52,,47.59359,-54.27349
2018-12-28 21:00:00+00:00,315.0,322.0,5.57,6.4,,47.59359,-54.27349
2018-12-28 21:10:00+00:00,314.0,318.0,5.25,6.47,,47.59359,-54.27349
2018-12-28 21:20:00+00:00,315.0,311.0,5.52,6.83,,47.59359,-54.27349
2018-12-28 21:30:00+00:00,309.0,314.0,4.44,6.0,,47.59359,-54.27349
2018-12-28 21:40:00+00:00,310.0,310.0,4.81,6.53,,47.59359,-54.27349
2018-12-28 21:50:00+00:00,321.0,322.0,5.57,6.99,,47.59359,-54.27349
2018-12-28 22:00:00+00:00,314.0,313.0,5.31,6.38,,47.59359,-54.27349
2018-12-28 22:10:00+00:00,328.0,334.0,6.31,8.97,,47.59359,-54.27349
2018-12-28 22:20:00+00:00,321.0,325.0,5.45,6.62,,47.59359,-54.27349
2018-12-28 22:30:00+00:00,322.0,324.0,4.94,5.97,,47.59359,-54.27349
2018-12-28 22:40:00+00:00,310.0,310.0,4.76,5.65,,47.59359,-54.27349
2018-12-28 22:50:00+00:00,318.0,315.0,4.95,5.66,,47.59359,-54.27349
2018-12-28 23:00:00+00:00,328.0,322.0,4.77,5.58,,47.59359,-54.27349
2018-12-28 23:10:00+00:00,327.0,331.0,3.66,4.61,,47.59359,-54.27349
2018-12-28 23:20:00+00:00,312.0,306.0,4.67,5.32,,47.59359,-54.27349
2018-12-28 23:30:00+00:00,303.0,303.0,4.01,5.15,,47.59359,-54.27349
2018-12-28 23:40:00+00:00,305.0,302.0,4.56,5.51,,47.59359,-54.27349
2018-12-28 23:50:00+00:00,304.0,311.0,4.51,5.5,,47.59359,-54.27349
